Terminal Aerodrome Forecast
Issued by NWS Cleveland, OH

Home | Current Version | Previous Version | Graphics & Text | Print | Product List | Glossary On
Versions: 1 2 3 4 5 6 7 8 9 10 11 12 13 14 15 16 17 18
000
FTUS41 KCLE 282024 AAA
TAFYNG
TAF AMD
KYNG 282024Z 2820/2918 31012G18KT P6SM VCSH SCT012 OVC028
      TEMPO 2820/2823 BKN012
     FM282300 32008KT P6SM SCT012 OVC045
     FM290100 23004KT P6SM SCT020
      TEMPO 2901/2903 BKN020
     FM290800 VRB03KT 5SM BR FEW250
     FM291500 17007KT P6SM SCT120 BKN200=

USA.gov is the U.S. government's official web portal to all federal, state and local government web resources and services.